| time (UTC) | temp F | wind direction | speed MPH | gust MPH | rain 1hr in | rain 24hr in | rain mn in | humidity % | barometer mb |
| 20260903060146 | 80 | 140 | 0.0 | 3.0 | 0.00 | 0.00 | 0.00 | 80 | 1016.4 |
| 20260903055643 | 79 | 170 | 1.0 | 3.0 | 0.00 | 0.00 | 0.00 | 81 | 1016.4 |
| 20260903055143 | 79 | 159 | 2.0 | 3.0 | 0.00 | 0.00 | 0.00 | 82 | 1016.4 |
| 20260903054643 | 78 | 161 | 3.0 | 3.0 | 0.00 | 0.00 | 0.00 | 83 | 1016.4 |
| 20260903054146 | 78 | 150 | 1.0 | 4.0 | 0.00 | 0.00 | 0.00 | 84 | 1016.3 |
| 20260903053643 | 77 | 117 | 0.0 | 4.0 | 0.00 | 0.00 | 0.00 | 84 | 1016.3 |
| 20260903053146 | 77 | 151 | 0.0 | 6.0 | 0.00 | 0.00 | 0.00 | 84 | 1016.2 |
| 20260903052649 | 77 | 176 | 3.0 | 5.0 | 0.00 | 0.00 | 0.00 | 84 | 1016.3 |
| 20260903052143 | 77 | 136 | 4.0 | 4.0 | 0.00 | 0.00 | 0.00 | 84 | 1016.2 |
| 20260903051652 | 77 | 175 | 3.0 | 5.0 | 0.00 | 0.00 | 0.00 | 84 | 1016.2 |
| 20260903051146 | 77 | 142 | 0.0 | 5.0 | 0.00 | 0.00 | 0.00 | 84 | 1016.2 |
| 20260903050643 | 77 | 131 | 3.0 | 4.0 | 0.00 | 0.00 | 0.00 | 84 | 1016.2 |
| 20260903050143 | 77 | 150 | 2.0 | 4.0 | 0.00 | 0.00 | 0.00 | 84 | 1016.2 |
| 20260903045646 | 77 | 184 | 0.0 | 4.0 | 0.00 | 0.00 | 0.00 | 84 | 1016.1 |
| 20260903045149 | 77 | 163 | 1.0 | 6.0 | 0.00 | 0.00 | 0.00 | 84 | 1016.1 |
| 20260903044643 | 77 | 128 | 4.0 | 5.0 | 0.00 | 0.00 | 0.00 | 84 | 1016.0 |
| 20260903044144 | 77 | 158 | 1.0 | 5.0 | 0.00 | 0.00 | 0.00 | 84 | 1016.0 |
| 20260903043646 | 77 | 163 | 4.0 | 5.0 | 0.00 | 0.00 | 0.00 | 84 | 1016.0 |
| 20260903043146 | 77 | 162 | 0.0 | 4.0 | 0.00 | 0.00 | 0.00 | 84 | 1016.0 |
| 20260903042649 | 77 | 171 | 3.0 | 5.0 | 0.00 | 0.00 | 0.00 | 84 | 1016.0 |
| 20260903042146 | 77 | 158 | 2.0 | 5.0 | 0.00 | 0.00 | 0.00 | 84 | 1016.0 |
| 20260903041643 | 77 | 175 | 1.0 | 5.0 | 0.00 | 0.00 | 0.00 | 83 | 1015.9 |
| 20260903041149 | 77 | 156 | 3.0 | 5.0 | 0.00 | 0.00 | 0.00 | 83 | 1016.0 |
| 20260903040646 | 77 | 118 | 4.0 | 5.0 | 0.00 | 0.00 | 0.00 | 83 | 1016.0 |
| 20260903040143 | 77 | 137 | 3.0 | 7.0 | 0.00 | 0.00 | 0.00 | 83 | 1016.0 |
| 20260903035643 | 77 | 130 | 2.0 | 6.0 | 0.00 | 0.00 | 0.00 | 83 | 1016.0 |
| 20260903035146 | 77 | 73 | 0.0 | 6.0 | 0.00 | 0.00 | 0.00 | 83 | 1016.0 |
| 20260903034643 | 77 | 151 | 1.0 | 5.0 | 0.00 | 0.00 | 0.00 | 83 | 1015.9 |
| 20260903034146 | 77 | 183 | 0.0 | 6.0 | 0.00 | 0.00 | 0.00 | 83 | 1015.9 |
| 20260903033649 | 77 | 138 | 1.0 | 7.0 | 0.00 | 0.00 | 0.00 | 83 | 1015.9 |
| 20260903033146 | 78 | 147 | 1.0 | 5.0 | 0.00 | 0.00 | 0.00 | 82 | 1015.9 |
| 20260903032643 | 78 | 136 | 2.0 | 6.0 | 0.00 | 0.00 | 0.00 | 82 | 1016.0 |
| 20260903032146 | 78 | 167 | 5.0 | 6.0 | 0.00 | 0.00 | 0.00 | 82 | 1016.0 |
| 20260903031644 | 78 | 355 | 1.0 | 2.0 | 0.00 | 0.00 | 0.00 | 82 | 1016.0 |
| 20260903031146 | 78 | 178 | 1.0 | 5.0 | 0.00 | 0.00 | 0.00 | 82 | 1016.1 |
| 20260903030646 | 78 | 171 | 3.0 | 4.0 | 0.00 | 0.00 | 0.00 | 82 | 1016.1 |
| 20260903030143 | 78 | 180 | 0.0 | 3.0 | 0.00 | 0.00 | 0.00 | 82 | 1016.1 |
| 20260903025646 | 78 | 180 | 1.0 | 3.0 | 0.00 | 0.00 | 0.00 | 82 | 1016.1 |
| 20260903025143 | 78 | 196 | 0.0 | 4.0 | 0.00 | 0.00 | 0.00 | 82 | 1016.1 |
| 20260903024652 | 78 | 136 | 2.0 | 5.0 | 0.00 | 0.00 | 0.00 | 83 | 1016.2 |
| 20260903024146 | 77 | 184 | 1.0 | 5.0 | 0.00 | 0.00 | 0.00 | 83 | 1016.2 |
| 20260903023649 | 77 | 198 | 4.0 | 5.0 | 0.00 | 0.00 | 0.00 | 82 | 1016.3 |
| 20260903023152 | 77 | 163 | 2.0 | 6.0 | 0.00 | 0.00 | 0.00 | 82 | 1016.3 |
| 20260903022643 | 77 | 121 | 1.0 | 5.0 | 0.00 | 0.00 | 0.00 | 82 | 1016.3 |
| 20260903022143 | 78 | 118 | 3.0 | 6.0 | 0.00 | 0.00 | 0.00 | 82 | 1016.4 |
| 20260903021643 | 78 | 188 | 5.0 | 6.0 | 0.00 | 0.00 | 0.00 | 82 | 1016.4 |
| 20260903021143 | 78 | 188 | 0.0 | 5.0 | 0.00 | 0.00 | 0.00 | 82 | 1016.4 |
| 20260903020646 | 78 | 145 | 2.0 | 4.0 | 0.00 | 0.00 | 0.00 | 82 | 1016.5 |
| 20260903020143 | 78 | 155 | 0.0 | 5.0 | 0.00 | 0.00 | 0.00 | 82 | 1016.5 |
| 20260903015640 | 78 | 117 | 1.0 | 6.0 | 0.00 | 0.00 | 0.00 | 82 | 1016.5 |
| 20260903015143 | 78 | 163 | 0.0 | 6.0 | 0.00 | 0.00 | 0.00 | 82 | 1016.6 |
| 20260903014641 | 78 | 160 | 1.0 | 8.0 | 0.00 | 0.00 | 0.00 | 81 | 1016.5 |
| 20260903014143 | 78 | 118 | 4.0 | 7.0 | 0.00 | 0.00 | 0.00 | 81 | 1016.5 |
| 20260903013640 | 78 | 159 | 3.0 | 5.0 | 0.00 | 0.00 | 0.00 | 81 | 1016.5 |
| 20260903013146 | 78 | 101 | 3.0 | 5.0 | 0.00 | 0.00 | 0.00 | 81 | 1016.6 |
| 20260903012644 | 78 | 138 | 0.0 | 6.0 | 0.00 | 0.00 | 0.00 | 81 | 1016.5 |
| 20260903012143 | 78 | 168 | 3.0 | 6.0 | 0.00 | 0.00 | 0.00 | 81 | 1016.5 |
| 20260903011641 | 78 | 130 | 2.0 | 5.0 | 0.00 | 0.00 | 0.00 | 81 | 1016.6 |
| 20260903011140 | 78 | 123 | 2.0 | 5.0 | 0.00 | 0.00 | 0.00 | 81 | 1016.5 |
| 20260903010644 | 78 | 147 | 0.0 | 3.0 | 0.00 | 0.00 | 0.00 | 81 | 1016.6 |
| 20260903010140 | 78 | 149 | 1.0 | 4.0 | 0.00 | 0.00 | 0.00 | 81 | 1016.6 |
| 20260903005646 | 78 | 155 | 0.0 | 5.0 | 0.00 | 0.00 | 0.00 | 81 | 1016.6 |
| 20260903005140 | 78 | 111 | 1.0 | 5.0 | 0.00 | 0.00 | 0.00 | 81 | 1016.7 |
| 20260903004646 | 78 | 136 | 2.0 | 6.0 | 0.00 | 0.00 | 0.00 | 81 | 1016.7 |
| 20260903004140 | 78 | 152 | 3.0 | 6.0 | 0.00 | 0.00 | 0.00 | 81 | 1016.8 |
| 20260903003643 | 78 | 139 | 4.0 | 6.0 | 0.00 | 0.00 | 0.00 | 80 | 1016.9 |
| 20260903003140 | 79 | 155 | 2.0 | 3.0 | 0.00 | 0.00 | 0.00 | 80 | 1016.8 |
| 20260903002644 | 79 | 136 | 0.0 | 3.0 | 0.00 | 0.00 | 0.00 | 80 | 1016.7 |
| 20260903002146 | 79 | 136 | 0.0 | 3.0 | 0.00 | 0.00 | 0.00 | 80 | 1016.8 |
| 20260903001644 | 79 | 128 | 0.0 | 4.0 | 0.00 | 0.00 | 0.00 | 80 | 1016.8 |
| 20260903001141 | 79 | 174 | 0.0 | 4.0 | 0.00 | 0.00 | 0.00 | 80 | 1016.9 |
| 20260903000640 | 79 | 157 | 1.0 | 6.0 | 0.00 | 0.00 | 0.00 | 81 | 1016.9 |
| 20260903000147 | 79 | 149 | 3.0 | 5.0 | 0.00 | 0.00 | 0.00 | 80 | 1017.0 |
| 20260902235641 | 79 | 147 | 4.0 | 7.0 | 0.00 | 0.00 | 0.00 | 80 | 1017.0 |
| 20260902235144 | 79 | 146 | 1.0 | 5.0 | 0.00 | 0.00 | 0.00 | 80 | 1017.1 |
| 20260902234641 | 79 | 84 | 2.0 | 5.0 | 0.00 | 0.00 | 0.00 | 80 | 1017.1 |
| 20260902234150 | 79 | 148 | 1.0 | 5.0 | 0.00 | 0.00 | 0.00 | 80 | 1017.1 |
| 20260902233644 | 79 | 101 | 0.0 | 4.0 | 0.00 | 0.00 | 0.00 | 80 | 1017.1 |
| 20260902233141 | 79 | 161 | 2.0 | 4.0 | 0.00 | 0.00 | 0.00 | 80 | 1017.0 |
| 20260902232650 | 79 | 150 | 2.0 | 5.0 | 0.00 | 0.00 | 0.00 | 80 | 1017.1 |
| 20260902232144 | 79 | 121 | 3.0 | 7.0 | 0.00 | 0.00 | 0.00 | 80 | 1017.0 |
| 20260902231647 | 79 | 165 | 3.0 | 8.0 | 0.00 | 0.00 | 0.00 | 80 | 1017.0 |
| 20260902231141 | 79 | 164 | 1.0 | 8.0 | 0.00 | 0.00 | 0.00 | 79 | 1017.0 |
| 20260902230641 | 80 | 177 | 3.0 | 5.0 | 0.00 | 0.00 | 0.00 | 79 | 1017.1 |
| 20260902230147 | 80 | 211 | 1.0 | 6.0 | 0.00 | 0.00 | 0.00 | 79 | 1017.1 |
| 20260902225641 | 80 | 182 | 2.0 | 3.0 | 0.00 | 0.00 | 0.00 | 79 | 1017.2 |
| 20260902225141 | 80 | 157 | 2.0 | 3.0 | 0.00 | 0.00 | 0.00 | 79 | 1017.2 |
| 20260902224641 | 80 | 167 | 2.0 | 4.0 | 0.00 | 0.00 | 0.00 | 79 | 1017.2 |
| 20260902224141 | 80 | 131 | 1.0 | 4.0 | 0.00 | 0.00 | 0.00 | 79 | 1017.2 |
| 20260902223641 | 80 | 146 | 2.0 | 4.0 | 0.00 | 0.00 | 0.00 | 78 | 1017.2 |
| 20260902223141 | 80 | 138 | 0.0 | 3.0 | 0.00 | 0.00 | 0.00 | 78 | 1017.2 |
| 20260902222644 | 80 | 134 | 2.0 | 5.0 | 0.00 | 0.00 | 0.00 | 78 | 1017.1 |
| 20260902222141 | 80 | 127 | 5.0 | 6.0 | 0.00 | 0.00 | 0.00 | 78 | 1017.1 |
| 20260902221644 | 81 | 168 | 2.0 | 6.0 | 0.00 | 0.00 | 0.00 | 78 | 1017.1 |
| 20260902221141 | 81 | 165 | 2.0 | 5.0 | 0.00 | 0.00 | 0.00 | 77 | 1017.2 |
| 20260902220644 | 81 | 146 | 0.0 | 4.0 | 0.00 | 0.00 | 0.00 | 77 | 1017.2 |
| 20260902220141 | 81 | 176 | 0.0 | 5.0 | 0.00 | 0.00 | 0.00 | 77 | 1017.2 |
| 20260902215641 | 81 | 167 | 0.0 | 6.0 | 0.00 | 0.00 | 0.00 | 76 | 1017.3 |
| 20260902215150 | 82 | 160 | 2.0 | 3.0 | 0.00 | 0.00 | 0.00 | 76 | 1017.3 |
| 20260902214641 | 82 | 142 | 0.0 | 2.0 | 0.00 | 0.00 | 0.00 | 76 | 1017.3 |
| 20260902214141 | 82 | 149 | 0.0 | 3.0 | 0.00 | 0.00 | 0.00 | 75 | 1017.4 |
| 20260902213644 | 82 | 179 | 0.0 | 3.0 | 0.00 | 0.00 | 0.00 | 75 | 1017.4 |
| 20260902213141 | 82 | 205 | 0.0 | 0.0 | 0.00 | 0.00 | 0.00 | 75 | 1017.4 |
| 20260902212650 | 82 | 205 | 0.0 | 3.0 | 0.00 | 0.00 | 0.00 | 75 | 1017.3 |
| 20260902212144 | 82 | 186 | 0.0 | 3.0 | 0.00 | 0.00 | 0.00 | 75 | 1017.2 |
| 20260902211641 | 82 | 190 | 1.0 | 3.0 | 0.00 | 0.00 | 0.00 | 74 | 1017.2 |
| 20260902211144 | 83 | 209 | 2.0 | 3.0 | 0.00 | 0.00 | 0.00 | 74 | 1017.3 |
| 20260902210644 | 83 | 202 | 3.0 | 4.0 | 0.00 | 0.00 | 0.00 | 74 | 1017.2 |
| 20260902210144 | 83 | 223 | 2.0 | 4.0 | 0.00 | 0.00 | 0.00 | 74 | 1017.2 |
| 20260902205641 | 83 | 194 | 3.0 | 3.0 | 0.00 | 0.00 | 0.00 | 74 | 1017.2 |
| 20260902205141 | 83 | 198 | 2.0 | 5.0 | 0.00 | 0.00 | 0.00 | 73 | 1017.2 |
| 20260902204648 | 83 | 230 | 3.0 | 6.0 | 0.00 | 0.00 | 0.00 | 73 | 1017.2 |
| 20260902204141 | 83 | 292 | 1.0 | 4.0 | 0.00 | 0.00 | 0.00 | 73 | 1017.2 |
| 20260902203644 | 83 | 296 | 0.0 | 0.0 | 0.00 | 0.00 | 0.00 | 73 | 1017.2 |
| 20260902203144 | 83 | 279 | 0.0 | 0.0 | 0.00 | 0.00 | 0.00 | 73 | 1017.3 |
| 20260902202641 | 83 | 287 | 0.0 | 3.0 | 0.00 | 0.00 | 0.00 | 74 | 1017.2 |
| 20260902202144 | 83 | 269 | 2.0 | 3.0 | 0.00 | 0.00 | 0.00 | 74 | 1017.3 |
| 20260902201650 | 83 | 326 | 0.0 | 3.0 | 0.00 | 0.00 | 0.00 | 74 | 1017.3 |
| 20260902201141 | 83 | 339 | 0.0 | 4.0 | 0.00 | 0.00 | 0.00 | 74 | 1017.3 |
| 20260902200641 | 83 | 309 | 2.0 | 4.0 | 0.00 | 0.00 | 0.00 | 74 | 1017.4 |
| 20260902200141 | 83 | 331 | 3.0 | 5.0 | 0.00 | 0.00 | 0.00 | 74 | 1017.4 |
| 20260902195641 | 83 | 314 | 3.0 | 5.0 | 0.00 | 0.00 | 0.00 | 74 | 1017.5 |
| 20260902195150 | 83 | 315 | 2.0 | 6.0 | 0.00 | 0.00 | 0.00 | 74 | 1017.5 |
| 20260902194641 | 83 | 315 | 5.0 | 5.0 | 0.00 | 0.00 | 0.00 | 74 | 1017.5 |
| 20260902194144 | 83 | 313 | 2.0 | 5.0 | 0.00 | 0.00 | 0.00 | 74 | 1017.6 |
| 20260902193641 | 83 | 290 | 2.0 | 5.0 | 0.00 | 0.00 | 0.00 | 73 | 1017.5 |
| 20260902193144 | 83 | 299 | 3.0 | 6.0 | 0.00 | 0.00 | 0.00 | 73 | 1017.6 |
| 20260902192641 | 83 | 323 | 2.0 | 6.0 | 0.00 | 0.00 | 0.00 | 74 | 1017.6 |
| 20260902192141 | 83 | 298 | 1.0 | 6.0 | 0.00 | 0.00 | 0.00 | 74 | 1017.6 |
| 20260902191641 | 84 | 301 | 0.0 | 4.0 | 0.00 | 0.00 | 0.00 | 74 | 1017.5 |
| 20260902191141 | 84 | 302 | 0.0 | 5.0 | 0.00 | 0.00 | 0.00 | 74 | 1017.5 |
| 20260902190641 | 84 | 269 | 3.0 | 4.0 | 0.00 | 0.00 | 0.00 | 74 | 1017.4 |
| 20260902190141 | 84 | 293 | 2.0 | 5.0 | 0.00 | 0.00 | 0.00 | 74 | 1017.4 |
| 20260902185644 | 84 | 329 | 2.0 | 5.0 | 0.00 | 0.00 | 0.00 | 74 | 1017.4 |
| 20260902185147 | 84 | 301 | 1.0 | 6.0 | 0.00 | 0.00 | 0.00 | 74 | 1017.3 |
| 20260902184641 | 84 | 302 | 3.0 | 6.0 | 0.00 | 0.00 | 0.00 | 73 | 1017.3 |
| 20260902184144 | 84 | 321 | 3.0 | 4.0 | 0.00 | 0.00 | 0.00 | 73 | 1017.2 |
| 20260902183647 | 84 | 316 | 3.0 | 6.0 | 0.00 | 0.00 | 0.00 | 72 | 1017.2 |
| 20260902183141 | 84 | 307 | 4.0 | 6.0 | 0.00 | 0.00 | 0.00 | 72 | 1017.1 |
| 20260902182644 | 84 | 300 | 4.0 | 6.0 | 0.00 | 0.00 | 0.00 | 72 | 1017.1 |
| 20260902182141 | 84 | 293 | 0.0 | 6.0 | 0.00 | 0.00 | 0.00 | 72 | 1017.0 |
| 20260902181641 | 84 | 308 | 3.0 | 6.0 | 0.00 | 0.00 | 0.00 | 72 | 1016.9 |
| 20260902181141 | 84 | 240 | 2.0 | 2.0 | 0.00 | 0.00 | 0.00 | 72 | 1016.8 |
| 20260902180641 | 84 | 268 | 1.0 | 5.0 | 0.00 | 0.00 | 0.00 | 72 | 1016.9 |
| 20260902180141 | 84 | 251 | 3.0 | 5.0 | 0.00 | 0.00 | 0.00 | 71 | 1016.9 |
| 20260902175644 | 84 | 281 | 3.0 | 4.0 | 0.00 | 0.00 | 0.00 | 71 | 1016.7 |
| 20260902175141 | 84 | 284 | 1.0 | 4.0 | 0.00 | 0.00 | 0.00 | 71 | 1016.7 |
| 20260902174641 | 84 | 300 | 2.0 | 5.0 | 0.00 | 0.00 | 0.00 | 71 | 1016.6 |
| 20260902174144 | 84 | 333 | 3.0 | 6.0 | 0.00 | 0.00 | 0.00 | 71 | 1016.6 |
| 20260902173644 | 84 | 308 | 1.0 | 5.0 | 0.00 | 0.00 | 0.00 | 72 | 1016.6 |
| 20260902173141 | 85 | 265 | 1.0 | 4.0 | 0.00 | 0.00 | 0.00 | 71 | 1016.6 |
| 20260902172641 | 85 | 300 | 2.0 | 4.0 | 0.00 | 0.00 | 0.00 | 71 | 1016.6 |
| 20260902172141 | 85 | 298 | 4.0 | 6.0 | 0.00 | 0.00 | 0.00 | 69 | 1016.7 |
| 20260902171642 | 86 | 302 | 5.0 | 6.0 | 0.00 | 0.00 | 0.00 | 69 | 1016.6 |
| 20260902171141 | 86 | 305 | 4.0 | 5.0 | 0.00 | 0.00 | 0.00 | 68 | 1016.5 |
| 20260902170641 | 86 | 15 | 1.0 | 6.0 | 0.00 | 0.00 | 0.00 | 68 | 1016.6 |
| 20260902170141 | 86 | 285 | 3.0 | 4.0 | 0.00 | 0.00 | 0.00 | 67 | 1016.6 |
| 20260902165644 | 86 | 288 | 2.0 | 6.0 | 0.00 | 0.00 | 0.00 | 67 | 1016.6 |
| 20260902165141 | 86 | 306 | 3.0 | 5.0 | 0.00 | 0.00 | 0.00 | 67 | 1016.6 |
| 20260902164641 | 87 | 333 | 5.0 | 5.0 | 0.00 | 0.00 | 0.00 | 66 | 1016.6 |
| 20260902164141 | 87 | 298 | 3.0 | 6.0 | 0.00 | 0.00 | 0.00 | 66 | 1016.8 |
| 20260902163642 | 87 | 281 | 1.0 | 4.0 | 0.00 | 0.00 | 0.00 | 67 | 1016.7 |
| 20260902163141 | 87 | 267 | 2.0 | 6.0 | 0.00 | 0.00 | 0.00 | 66 | 1016.7 |
| 20260902162641 | 87 | 332 | 5.0 | 7.0 | 0.00 | 0.00 | 0.00 | 65 | 1016.8 |
| 20260902162141 | 88 | 305 | 6.0 | 6.0 | 0.00 | 0.00 | 0.00 | 65 | 1016.9 |
| 20260902161641 | 88 | 39 | 2.0 | 5.0 | 0.00 | 0.00 | 0.00 | 66 | 1016.9 |
| 20260902161141 | 88 | 300 | 2.0 | 6.0 | 0.00 | 0.00 | 0.00 | 65 | 1016.9 |
| 20260902160641 | 88 | 295 | 4.0 | 6.0 | 0.00 | 0.00 | 0.00 | 62 | 1016.9 |
| 20260902160141 | 88 | 313 | 2.0 | 7.0 | 0.00 | 0.00 | 0.00 | 62 | 1016.9 |
| 20260902155647 | 88 | 319 | 4.0 | 6.0 | 0.00 | 0.00 | 0.00 | 62 | 1016.9 |
| 20260902155141 | 88 | 302 | 2.0 | 5.0 | 0.00 | 0.00 | 0.00 | 62 | 1016.8 |
| 20260902154645 | 89 | 28 | 3.0 | 6.0 | 0.00 | 0.00 | 0.00 | 62 | 1016.9 |
| 20260902154141 | 89 | 304 | 3.0 | 7.0 | 0.00 | 0.00 | 0.00 | 60 | 1016.9 |
| 20260902153641 | 89 | 273 | 2.0 | 8.0 | 0.00 | 0.00 | 0.00 | 62 | 1016.9 |
| 20260902153144 | 89 | 295 | 3.0 | 8.0 | 0.00 | 0.00 | 0.00 | 60 | 1016.9 |
| 20260902152647 | 89 | 304 | 4.0 | 7.0 | 0.00 | 0.00 | 0.00 | 61 | 1016.9 |
| 20260902152144 | 89 | 284 | 6.0 | 7.0 | 0.00 | 0.00 | 0.00 | 61 | 1016.9 |
| 20260902151641 | 89 | 273 | 4.0 | 6.0 | 0.00 | 0.00 | 0.00 | 60 | 1016.9 |
| 20260902151150 | 89 | 29 | 2.0 | 8.0 | 0.00 | 0.00 | 0.00 | 61 | 1016.9 |
| 20260902150647 | 89 | 255 | 3.0 | 9.0 | 0.00 | 0.00 | 0.00 | 62 | 1016.9 |
| 20260902150141 | 89 | 169 | 0.0 | 8.0 | 0.00 | 0.00 | 0.00 | 61 | 1016.9 |
| 20260902145644 | 89 | 289 | 5.0 | 8.0 | 0.00 | 0.00 | 0.00 | 61 | 1017.0 |
| 20260902145144 | 89 | 257 | 1.0 | 7.0 | 0.00 | 0.00 | 0.00 | 62 | 1017.0 |
| 20260902144642 | 89 | 313 | 2.0 | 7.0 | 0.00 | 0.00 | 0.00 | 62 | 1017.1 |
| 20260902144147 | 89 | 344 | 4.0 | 8.0 | 0.00 | 0.00 | 0.00 | 61 | 1017.0 |
| 20260902143641 | 90 | 165 | 0.0 | 6.0 | 0.00 | 0.00 | 0.00 | 61 | 1017.0 |
| 20260902143141 | 90 | 268 | 4.0 | 7.0 | 0.00 | 0.00 | 0.00 | 61 | 1017.1 |
| 20260902142644 | 89 | 323 | 3.0 | 7.0 | 0.00 | 0.00 | 0.00 | 61 | 1017.1 |
| 20260902142144 | 89 | 321 | 2.0 | 9.0 | 0.00 | 0.00 | 0.00 | 61 | 1017.1 |
| 20260902141644 | 89 | 324 | 4.0 | 8.0 | 0.00 | 0.00 | 0.00 | 62 | 1017.1 |
| 20260902141144 | 89 | 283 | 3.0 | 8.0 | 0.00 | 0.00 | 0.00 | 60 | 1017.2 |
| 20260902140641 | 88 | 331 | 6.0 | 7.0 | 0.00 | 0.00 | 0.00 | 62 | 1017.2 |
| 20260902140147 | 89 | 319 | 4.0 | 9.0 | 0.00 | 0.00 | 0.00 | 61 | 1017.2 |
| 20260902135641 | 89 | 330 | 4.0 | 8.0 | 0.00 | 0.00 | 0.00 | 62 | 1017.2 |
| 20260902135144 | 89 | 332 | 2.0 | 11.0 | 0.00 | 0.00 | 0.00 | 61 | 1017.3 |
| 20260902134644 | 90 | 324 | 6.0 | 8.0 | 0.00 | 0.00 | 0.00 | 60 | 1017.3 |
| 20260902134144 | 89 | 308 | 4.0 | 7.0 | 0.00 | 0.00 | 0.00 | 61 | 1017.3 |
| 20260902133642 | 89 | 290 | 2.0 | 8.0 | 0.00 | 0.00 | 0.00 | 63 | 1017.3 |
| 20260902133141 | 89 | 297 | 4.0 | 9.0 | 0.00 | 0.00 | 0.00 | 63 | 1017.4 |
| 20260902132644 | 89 | 306 | 2.0 | 8.0 | 0.00 | 0.00 | 0.00 | 62 | 1017.5 |
| 20260902132147 | 89 | 289 | 4.0 | 10.0 | 0.00 | 0.00 | 0.00 | 62 | 1017.4 |
| 20260902131647 | 89 | 0 | 1.0 | 10.0 | 0.00 | 0.00 | 0.00 | 63 | 1017.5 |
| 20260902131144 | 89 | 293 | 4.0 | 8.0 | 0.00 | 0.00 | 0.00 | 63 | 1017.6 |
| 20260902130648 | 89 | 351 | 2.0 | 7.0 | 0.00 | 0.00 | 0.00 | 64 | 1017.6 |
| 20260902130144 | 89 | 285 | 2.0 | 9.0 | 0.00 | 0.00 | 0.00 | 64 | 1017.7 |
| 20260902125647 | 89 | 335 | 4.0 | 9.0 | 0.00 | 0.00 | 0.00 | 64 | 1017.7 |
| 20260902125142 | 89 | 17 | 3.0 | 10.0 | 0.00 | 0.00 | 0.00 | 63 | 1017.7 |
| 20260902124641 | 88 | 333 | 4.0 | 10.0 | 0.00 | 0.00 | 0.00 | 65 | 1017.7 |
| 20260902124144 | 89 | 311 | 8.0 | 11.0 | 0.00 | 0.00 | 0.00 | 64 | 1017.8 |
| 20260902123641 | 89 | 5 | 6.0 | 10.0 | 0.00 | 0.00 | 0.00 | 63 | 1017.8 |
| 20260902123144 | 89 | 311 | 9.0 | 11.0 | 0.00 | 0.00 | 0.00 | 63 | 1017.9 |
| 20260902122641 | 89 | 239 | 7.0 | 10.0 | 0.00 | 0.00 | 0.00 | 63 | 1017.9 |
| 20260902122144 | 89 | 287 | 5.0 | 9.0 | 0.00 | 0.00 | 0.00 | 62 | 1018.0 |
| 20260902121644 | 89 | 5 | 4.0 | 10.0 | 0.00 | 0.00 | 0.00 | 63 | 1018.0 |
| 20260902121141 | 89 | 272 | 5.0 | 8.0 | 0.00 | 0.00 | 0.00 | 61 | 1018.1 |
| 20260902120641 | 89 | 340 | 5.0 | 10.0 | 0.00 | 0.00 | 0.00 | 62 | 1018.1 |
| 20260902120141 | 89 | 259 | 7.0 | 9.0 | 0.00 | 0.00 | 0.00 | 63 | 1018.1 |
| 20260902115644 | 89 | 332 | 2.0 | 10.0 | 0.00 | 0.00 | 0.00 | 62 | 1018.1 |
| 20260902115141 | 89 | 313 | 7.0 | 9.0 | 0.00 | 0.00 | 0.00 | 60 | 1018.2 |
| 20260902114641 | 89 | 306 | 2.0 | 11.0 | 0.00 | 0.00 | 0.00 | 59 | 1018.1 |
| 20260902114150 | 89 | 292 | 6.0 | 9.0 | 0.00 | 0.00 | 0.00 | 60 | 1018.1 |
| 20260902113644 | 89 | 321 | 3.0 | 8.0 | 0.00 | 0.00 | 0.00 | 58 | 1018.2 |
| 20260902113144 | 89 | 343 | 6.0 | 10.0 | 0.00 | 0.00 | 0.00 | 56 | 1018.1 |
| 20260902112644 | 89 | 277 | 7.0 | 10.0 | 0.00 | 0.00 | 0.00 | 60 | 1018.1 |
| 20260902112144 | 89 | 269 | 3.0 | 10.0 | 0.00 | 0.00 | 0.00 | 59 | 1018.1 |
| 20260902111641 | 90 | 314 | 3.0 | 9.0 | 0.00 | 0.00 | 0.00 | 58 | 1018.1 |
| 20260902111144 | 89 | 342 | 2.0 | 10.0 | 0.00 | 0.00 | 0.00 | 60 | 1018.1 |
| 20260902110644 | 89 | 5 | 3.0 | 7.0 | 0.00 | 0.00 | 0.00 | 59 | 1018.1 |
| 20260902110144 | 89 | 286 | 0.0 | 6.0 | 0.00 | 0.00 | 0.00 | 60 | 1018.1 |
| 20260902105641 | 89 | 61 | 2.0 | 8.0 | 0.00 | 0.00 | 0.00 | 59 | 1018.2 |
| 20260902105141 | 89 | 326 | 7.0 | 8.0 | 0.00 | 0.00 | 0.00 | 59 | 1018.2 |
| 20260902104641 | 89 | 265 | 6.0 | 9.0 | 0.00 | 0.00 | 0.00 | 59 | 1018.2 |
| 20260902104141 | 89 | 336 | 2.0 | 8.0 | 0.00 | 0.00 | 0.00 | 61 | 1018.2 |
| 20260902103647 | 89 | 278 | 5.0 | 10.0 | 0.00 | 0.00 | 0.00 | 61 | 1018.3 |
| 20260902103144 | 89 | 313 | 8.0 | 8.0 | 0.00 | 0.00 | 0.00 | 60 | 1018.4 |
| 20260902102644 | 89 | 286 | 4.0 | 6.0 | 0.00 | 0.00 | 0.00 | 62 | 1018.4 |
| 20260902102147 | 89 | 342 | 2.0 | 6.0 | 0.00 | 0.00 | 0.00 | 62 | 1018.4 |
| 20260902101641 | 88 | 278 | 1.0 | 7.0 | 0.00 | 0.00 | 0.00 | 63 | 1018.5 |
| 20260902101142 | 89 | 252 | 3.0 | 8.0 | 0.00 | 0.00 | 0.00 | 62 | 1018.6 |
| 20260902100642 | 88 | 289 | 4.0 | 11.0 | 0.00 | 0.00 | 0.00 | 63 | 1018.5 |
| 20260902100141 | 88 | 275 | 1.0 | 9.0 | 0.00 | 0.00 | 0.00 | 64 | 1018.5 |
| 20260902095647 | 88 | 313 | 7.0 | 10.0 | 0.00 | 0.00 | 0.00 | 64 | 1018.5 |
| 20260902095141 | 88 | 266 | 3.0 | 12.0 | 0.00 | 0.00 | 0.00 | 62 | 1018.5 |
| 20260902094641 | 88 | 289 | 6.0 | 9.0 | 0.00 | 0.00 | 0.00 | 62 | 1018.5 |
| 20260902094141 | 88 | 305 | 7.0 | 9.0 | 0.00 | 0.00 | 0.00 | 63 | 1018.6 |
| 20260902093644 | 87 | 290 | 4.0 | 11.0 | 0.00 | 0.00 | 0.00 | 63 | 1018.5 |
| 20260902093141 | 88 | 307 | 6.0 | 10.0 | 0.00 | 0.00 | 0.00 | 61 | 1018.5 |
| 20260902092644 | 88 | 278 | 3.0 | 7.0 | 0.00 | 0.00 | 0.00 | 60 | 1018.5 |
| 20260902092150 | 88 | 263 | 3.0 | 8.0 | 0.00 | 0.00 | 0.00 | 63 | 1018.5 |
| 20260902091644 | 88 | 284 | 4.0 | 6.0 | 0.00 | 0.00 | 0.00 | 64 | 1018.4 |
| 20260902091142 | 87 | 301 | 2.0 | 8.0 | 0.00 | 0.00 | 0.00 | 62 | 1018.4 |
| 20260902090645 | 87 | 309 | 7.0 | 10.0 | 0.00 | 0.00 | 0.00 | 62 | 1018.4 |
| 20260902090151 | 88 | 234 | 4.0 | 9.0 | 0.00 | 0.00 | 0.00 | 62 | 1018.4 |
| 20260902085642 | 87 | 346 | 3.0 | 7.0 | 0.00 | 0.00 | 0.00 | 63 | 1018.3 |
| 20260902085144 | 87 | 309 | 3.0 | 9.0 | 0.00 | 0.00 | 0.00 | 64 | 1018.2 |
| 20260902084641 | 87 | 230 | 3.0 | 8.0 | 0.00 | 0.00 | 0.00 | 63 | 1018.2 |
| 20260902084141 | 87 | 306 | 5.0 | 7.0 | 0.00 | 0.00 | 0.00 | 65 | 1018.1 |
| 20260902083641 | 87 | 316 | 4.0 | 8.0 | 0.00 | 0.00 | 0.00 | 64 | 1018.1 |
| 20260902083145 | 87 | 342 | 7.0 | 8.0 | 0.00 | 0.00 | 0.00 | 64 | 1018.0 |
| 20260902082641 | 87 | 317 | 3.0 | 8.0 | 0.00 | 0.00 | 0.00 | 64 | 1018.0 |
| 20260902082142 | 87 | 265 | 3.0 | 9.0 | 0.00 | 0.00 | 0.00 | 63 | 1018.1 |
| 20260902081641 | 87 | 313 | 4.0 | 7.0 | 0.00 | 0.00 | 0.00 | 63 | 1018.0 |
| 20260902081142 | 87 | 319 | 3.0 | 7.0 | 0.00 | 0.00 | 0.00 | 63 | 1018.0 |
| 20260902080644 | 87 | 298 | 4.0 | 7.0 | 0.00 | 0.00 | 0.00 | 64 | 1018.0 |
| 20260902080141 | 87 | 287 | 3.0 | 8.0 | 0.00 | 0.00 | 0.00 | 62 | 1018.0 |
| 20260902075642 | 86 | 307 | 3.0 | 6.0 | 0.00 | 0.00 | 0.00 | 63 | 1017.9 |
| 20260902075151 | 86 | 338 | 5.0 | 6.0 | 0.00 | 0.00 | 0.00 | 64 | 1017.8 |
| 20260902074641 | 86 | 300 | 3.0 | 6.0 | 0.00 | 0.00 | 0.00 | 64 | 1017.8 |
| 20260902074144 | 86 | 201 | 3.0 | 7.0 | 0.00 | 0.00 | 0.00 | 63 | 1017.7 |
| 20260902073645 | 86 | 303 | 4.0 | 4.0 | 0.00 | 0.00 | 0.00 | 64 | 1017.7 |
| 20260902073141 | 86 | 318 | 1.0 | 6.0 | 0.00 | 0.00 | 0.00 | 63 | 1017.7 |
| 20260902072641 | 86 | 303 | 2.0 | 5.0 | 0.00 | 0.00 | 0.00 | 62 | 1017.8 |
| 20260902072144 | 86 | 39 | 0.0 | 8.0 | 0.00 | 0.00 | 0.00 | 62 | 1017.8 |
| 20260902071647 | 86 | 292 | 4.0 | 6.0 | 0.00 | 0.00 | 0.00 | 63 | 1017.6 |
| 20260902071145 | 86 | 261 | 2.0 | 5.0 | 0.00 | 0.00 | 0.00 | 63 | 1017.6 |
| 20260902070648 | 85 | 284 | 2.0 | 5.0 | 0.00 | 0.00 | 0.00 | 63 | 1017.7 |
| 20260902070145 | 85 | 221 | 2.0 | 6.0 | 0.00 | 0.00 | 0.00 | 63 | 1017.6 |
| 20260902065645 | 85 | 240 | 0.0 | 2.0 | 0.00 | 0.00 | 0.00 | 64 | 1017.5 |
| 20260902065142 | 85 | 178 | 1.0 | 4.0 | 0.00 | 0.00 | 0.00 | 64 | 1017.5 |
| 20260902064645 | 85 | 245 | 2.0 | 4.0 | 0.00 | 0.00 | 0.00 | 65 | 1017.5 |
| 20260902064148 | 85 | 119 | 0.0 | 0.0 | 0.00 | 0.00 | 0.00 | 66 | 1017.5 |
| 20260902063645 | 84 | 187 | 0.0 | 1.0 | 0.00 | 0.00 | 0.00 | 68 | 1017.4 |
| 20260902063148 | 83 | 139 | 0.0 | 3.0 | 0.00 | 0.00 | 0.00 | 68 | 1017.4 |
| 20260902062642 | 83 | 191 | 2.0 | 3.0 | 0.00 | 0.00 | 0.00 | 69 | 1017.3 |
| 20260902062145 | 83 | 144 | 3.0 | 5.0 | 0.00 | 0.00 | 0.00 | 71 | 1017.3 |
| 20260902061142 | 82 | 202 | 2.0 | 6.0 | 0.00 | 0.00 | 0.00 | 72 | 1017.3 |
| 20260902060648 | 82 | 149 | 3.0 | 5.0 | 0.00 | 0.00 | 0.00 | 72 | 1017.2 |